Lid_Strength_Index
1 1 1 1 1 1 2 6 11 4 3 10 10 12 11 9 9 7 8 7 9 10 11 12 12 11 10 7 7 10 9 11 14 12 9 8 9 10 10 16 16 15 16 16
2 2 1 1 1 1 4 8 9 4 5 13 13 11 10 10 10 10 9 9 8 8 10 13 10 10 7 6 7 9 9 11 15 14 11 9 10 10 9 10 12 15 18 16
2 2 2 2 2 1 3 9 12 8 7 8 12 12 12 11 8 9 8 9 7 10 10 9 10 10 8 7 7 7 7 11 13 15 13 10 12 10 9 10 16 15 15 13
2 3 3 2 2 2 4 9 11 9 12 12 11 11 10 12 11 9 8 10 9 10 12 11 11 10 10 8 7 8 8 12 11 11 10 9 10 10 10 11 11 14 13 12
3 3 3 3 2 2 5 12 10 9 11 9 11 11 12 11 10 10 10 11 10 8 10 10 12 11 10 11 9 10 8 12 11 12 10 10 11 10 10 10 10 11 11 12
3 3 3 3 3 3 5 6 7 9 10 10 11 12 11 10 9 8 8 8 10 10 9 7 8 8 8 9 10 11 11 12 13 15 11 11 14 11 10 10 9 10 13 10
3 3 3 3 3 3 3 6 6 9 12 11 11 10 10 10 9 10 8 7 9 8 5 5 6 7 8 8 9 9 12 11 13 16 14 19 11 8 8 9 9 8 9 9
3 3 3 3 3 2 4 4 5 8 11 10 10 10 10 9 8 9 8 7 6 5 7 10 13 13 12 11 9 10 9 12 15 17 16 13 11 9 9 10 10 8 9 9
1 1 1 2 2 2 3 4 3 5 9 10 7 8 8 10 10 10 8 6 5 6 8 11 15 17 14 15 12 9 10 10 14 16 19 19 12 8 6 7 13 7 7 8
1 1 1 1 1 1 2 4 3 4 8 6 6 8 9 6 7 9 8 8 7 7 11 13 15 15 11 16 16 15 14 14 16 16 18 15 9 7 6 14 13 7 7 7
0 0 0 0 1 0 1 4 2 4 7 6 4 5 7 6 7 10 8 8 8 10 13 13 13 14 12 13 11 13 14 16 16 15 18 19 8 8 11 9 7 6 6 7
1 0 0 0 0 0 0 5 2 1 5 6 3 3 3 3 4 6 6 8 8 9 11 12 11 14 13 12 14 9 15 12 14 13 14 8 7 8 6 6 6 6 6 6
1 0 0 0 0 0 1 3 3 4 6 6 6 6 3 1 2 2 8 7 6 7 6 9 10 13 10 15 13 11 9 8 11 11 9 8 7 6 6 5 6 5 5 5
1 1 0 0 0 0 1 3 2 4 5 9 8 2 4 1 1 2 3 5 4 5 6 9 10 12 8 12 10 11 9 8 10 11 8 7 7 6 6 6 5 5 5 5
1 0 0 0 0 0 1 1 2 2 5 9 8 4 3 2 2 3 3 4 6 7 9 10 11 9 9 9 9 11 8 9 12 13 8 8 7 6 5 6 5 5 5 5
0 0 0 0 0 0 2 6 2 0 1 7 11 5 5 3 3 4 5 5 6 7 8 9 8 7 9 13 13 8 7 7 7 8 7 6 6 5 5 6 6 6 6 6
0 0 0 0 0 1 4 6 4 1 1 6 10 10 5 4 4 6 6 5 6 7 8 9 9 8 8 12 13 8 6 6 6 5 5 7 7 7 5 6 6 6 6 6
0 0 0 1 1 1 4 2 1 1 4 5 11 11 8 4 8 9 6 7 7 7 8 8 9 8 9 12 9 8 7 6 6 6 5 6 5 6 6 6 7 7 7 7
1 1 1 2 3 5 4 1 1 1 4 9 12 13 12 6 7 7 7 7 12 7 10 10 9 10 12 12 11 10 9 8 8 6 6 6 6 6 6 7 7 8 8 8
1 2 5 8 5 2 2 4 6 6 6 7 12 9 13 8 9 11 11 10 12 13 10 8 11 13 11 11 10 10 10 9 8 9 9 9 9 8 8 8 8 8 9 11
3 6 7 5 2 4 6 10 11 9 12 9 9 9 10 7 10 10 9 11 13 15 12 11 13 15 13 12 11 11 11 10 10 9 10 10 10 10 11 12 12 13 13 15
4 4 3 4 6 7 11 13 11 12 12 10 11 9 8 9 8 10 9 11 12 15 10 12 16 14 13 12 13 13 12 12 12 12 12 12 12 12 12 14 15 15 16 16
3 5 7 8 10 13 16 15 14 12 11 10 9 11 10 9 8 11 10 13 13 9 13 17 17 14 13 13 13 13 13 14 14 14 14 14 15 15 15 16 16 16 16 16
9 10 15 14 14 14 14 13 12 11 11 11 11 10 10 11 11 11 13 11 12 15 18 20 17 15 14 13 14 14 15 15 15 15 16 16 17 17 17 17 16 17 18 18
14 14 16 16 13 13 12 11 11 10 11 12 11 10 10 11 12 12 12 15 20 19 22 18 16 15 14 15 15 16 16 17 17 17 18 18 18 18 19 18 18 18 18 19
14 15 16 16 18 18 17 14 13 12 12 12 12 12 13 15 16 18 19 20 22 21 19 18 17 17 16 16 16 16 16 17 17 17 17 18 18 19 19 18 18 18 18 19
14 15 13 15 17 16 14 13 16 12 13 14 15 19 18 14 20 22 19 22 21 19 19 18 18 18 18 17 18 17 17 17 16 17 17 18 17 17 18 19 18 17 18 18